Location: Vanderbilt Planetarium & Observatory
(40.9052°N, 73.3671°W)
Time: 22:11:41
(UTC-04:00)

Daily predictions for brighter satellites

Satellite Brightness Start Highest point End
(mag) Time Altitude Azimuth Time Altitude Azimuth Time Altitude Azimuth
METEOR-M 4.3 19:28:54 10° SSE 19:34:15 85° WSW 19:39:37 10° NNW
Helios 1B rocket 4.0 19:37:26 10° ENE 19:39:51 15° E 19:42:16 10° SE
Helios 1A 4.5 19:38:37 10° ESE 19:41:31 19° ENE 19:44:25 10° NNE
Cosmos 1437 Rocket 2.9 19:41:47 10° S 19:45:40 57° E 19:49:40 10° NNE
SJ-6B 2.7 19:42:45 10° SSE 19:46:30 90° ENE 19:50:15 10° NNW
H-2A R/B 4.2 19:42:46 10° SSW 19:47:17 30° SE 20:04:22 11° E
Cosmos 2098 4.3 19:44:59 10° S 19:48:27 87° WNW 19:51:28 10° N
Lacrosse 4 Rocket 1.2 19:44:52 10° SSW 19:48:54 78° ESE 19:52:59 10° NNE
Resurs 1-3 4.0 19:48:04 10° SE 19:52:12 42° ENE 19:56:20 10° N
Cosmos 1844 Rocket 2.8 19:52:56 10° SSW 19:58:36 82° WNW 20:04:16 10° NNE
USA 215 3.7 19:52:50 10° ENE 19:58:51 38° SE 20:04:49 10° SSW
Spot 2 Rocket 3.6 19:54:27 10° SSE 19:59:27 59° ENE 20:04:29 10° N
Cosmos 2150 Rocket 3.9 19:55:56 10° SSW 20:01:04 83° ESE 20:06:15 10° NNE
Cosmos 1758 4.4 20:03:07 10° SE 20:06:19 24° E 20:09:32 10° NE
FengYun 1-2 T 4.3 20:01:34 10° SSE 20:07:07 87° WSW 20:12:46 10° NNW
Cosmos 2278 Rocket 2.4 20:02:23 10° S 20:07:48 50° ESE 20:13:17 10° NE
Cosmos 1833 Rocket 4.1 20:04:16 10° N 20:08:23 20° NE 20:10:56 15° E
Cosmos 1934 Rocket 3.9 20:05:41 10° S 20:11:49 78° E 20:17:55 10° N
Cosmos 1378 3.4 20:09:24 10° NNW 20:13:09 72° W 20:16:53 10° S
SAR-Lupe-4 4.0 20:10:59 15° SE 20:13:38 40° ENE 20:17:00 10° N
Cosmos 1898 Rocket 4.2 20:08:56 10° SSW 20:14:10 59° WNW 20:19:25 10° NNE
Cosmos 1939 Rocket 4.3 20:13:32 19° E 20:14:37 21° ENE 20:17:47 10° NNE
Cosmos 990 Rocket 3.9 20:09:57 10° SSW 20:15:12 84° ESE 20:20:29 10° NNE
Tiangong 1 0.8 20:13:09 10° WNW 20:16:05 86° SSW 20:17:21 31° ESE
Cosmos 1953 3.2 20:13:06 10° SSE 20:16:38 29° E 20:20:11 10° NNE
Envisat 3.8 20:14:18 17° ESE 20:17:26 32° ENE 20:21:56 10° N
Okean 3 Rocket 3.8 20:13:51 10° N 20:18:06 47° E 20:22:01 12° SSE
FENGYUN 3A 4.1 20:12:51 10° S 20:18:12 64° WSW 20:23:36 10° NNW
Cosmos 2297 4.5 20:15:25 10° SSE 20:20:12 28° ESE 20:25:02 10° NE
H-2A R/B 3.0 20:18:18 10° S 20:22:09 71° W 20:26:05 10° NNW
Meteor 1-24 Rocket 3.8 20:17:13 10° NNW 20:22:42 81° W 20:28:21 10° S
Cosmos 1125 Rocket 4.1 20:18:12 10° SSE 20:22:45 32° E 20:27:20 10° NE
USA 186 1.1 20:24:57 49° NE 20:24:57 49° NE 20:26:59 10° N
Abrixas 3.9 20:23:44 10° NW 20:26:10 25° NNE 20:26:54 22° NE
USA 267 4.5 20:27:21 14° ENE 20:31:45 29° NNE 20:37:13 10° NW
Geosat 4.0 20:27:11 10° NNE 20:32:14 84° WNW 20:37:15 10° SSW
SAR-Lupe-1 4.0 20:31:15 27° SSE 20:33:02 61° ENE 20:36:35 10° N
ALOS 3.9 20:32:52 10° SSW 20:37:08 35° W 20:41:25 10° NNW
Cosmos 2082 Rocket 2.9 20:32:39 10° N 20:37:54 36° ENE 20:39:45 29° E
Lacrosse 5 rocket 3.4 20:36:20 10° N 20:38:25 14° NNE 20:39:27 13° NE
GP-B 3.2 20:37:25 25° SSE 20:39:45 50° E 20:44:03 10° N
CZ-3B DEB 3.1 20:29:15 10° SW 20:40:32 68° NW 20:45:34 10° NE
Resurs 01 Rocket 2.6 20:36:25 10° S 20:40:40 47° W 20:44:57 10° NNW
Meteor 1-4 Rocket 2.5 20:40:40 50° ESE 20:41:02 53° E 20:44:26 10° NNE
CZ-4B DEB 2.7 20:41:44 57° ENE 20:41:44 57° ENE 20:44:44 10° N
Cosmos 1766 4.3 20:38:15 10° SSW 20:42:00 47° W 20:45:46 10° N
Cosmos 1544 2.9 20:39:09 10° S 20:42:47 81° E 20:46:27 10° N
Cosmos 1818 3.9 20:38:07 10° NNW 20:43:25 49° NE 20:45:20 34° ESE
RESURS DK-1 2.6 20:39:33 10° NNW 20:43:40 67° WSW 20:46:08 23° S
ERS-1 Rocket 3.7 20:43:31 30° E 20:44:11 32° ENE 20:48:37 10° N
SL-27 R/B 3.5 20:44:32 10° NNW 20:47:58 45° WSW 20:50:28 17° S
BREEZE-M DEB (TANK) 3.4 20:45:01 10° SSW 20:48:19 46° SE 20:58:17 10° ENE
Cosmos 2100 Rocket 4.3 20:44:07 16° SSE 20:48:45 45° E 20:54:44 10° NNE
Cosmos 1605 Rocket 4.1 20:43:19 10° S 20:49:33 78° W 20:55:55 10° N
Timation 1 Rocket 4.3 20:43:59 10° S 20:49:54 63° ESE 20:55:51 10° NNE
Meteor 1-29 2.8 20:47:28 10° NNE 20:50:56 82° ESE 20:52:30 31° S
COSMOS 2487 3.8 20:48:31 10° N 20:50:46 27° NNE 20:50:46 27° NNE
Lacrosse 5 2.0 20:48:09 10° SW 20:53:12 72° NW 20:58:10 11° NE
Cosmos 1766 Rocket 3.6 20:52:59 10° N 20:57:26 59° E 20:57:56 55° ESE
SPOT 5 4.3 20:58:37 25° ENE 20:58:37 25° ENE 21:02:26 10° NNE
Cosmos 1076 Rocket 3.3 20:54:16 10° N 20:58:33 86° E 20:59:48 45° S
Cosmos 1269 Rocket 4.1 20:53:44 10° NNW 20:58:57 58° ENE 21:00:06 47° ESE
Delta 2 Rocket 4.5 20:55:56 10° WSW 20:59:52 30° SSW 21:00:11 30° S
Cosmos 2098 Rocket 4.3 20:53:46 10° S 21:00:45 87° E 21:08:25 10° N
Meteor 1-21 Rocket 4.2 20:56:43 10° N 21:02:34 82° E 21:05:51 28° SSE
OE (NEXTSAT) 4.5 20:59:04 10° WSW 21:02:26 76° W 21:02:26 76° W
ARGOS 4.4 21:06:43 25° NE 21:06:43 25° NE 21:10:18 10° N
Cosmos 1802 Rocket 4.1 21:05:09 44° ESE 21:06:06 47° E 21:11:57 10° NNE
Cosmos 468 4.5 21:03:09 10° NNW 21:08:24 80° WSW 21:10:22 39° S
Cosmos 2344 4.4 21:06:13 10° SW 21:13:42 54° NW 21:22:19 10° NNE
Cosmos 2061 Rocket 4.0 21:11:25 36° SSE 21:13:59 61° E 21:20:19 10° NNE
Helios 1B rocket 3.6 21:11:25 10° N 21:15:21 42° WNW 21:19:14 10° SW
Helios 1A 4.3 21:14:06 17° SSW 21:16:48 36° W 21:20:42 10° NNW
Cosmos 1867 3.4 21:12:35 10° SSW 21:18:00 74° ESE 21:23:28 10° NE
Timation 2 Rocket 3.9 21:12:27 10° NNW 21:18:47 64° ENE 21:19:44 56° ESE
Cosmos 1674 3.3 21:15:39 10° N 21:18:33 51° NNW 21:18:33 51° NNW
Cosmos-2242 3.5 21:22:00 49° N 21:22:00 49° N 21:25:10 10° N
Cosmos 1340 Rocket 4.1 21:24:49 10° N 21:27:12 34° N 21:27:12 34° N
Cosmos 372 Rocket 4.0 21:29:27 10° SSW 21:34:32 74° WNW 21:39:42 10° NNE
USA 215 3.6 21:35:35 10° NE 21:42:02 63° NW 21:48:26 10° WSW
H-2A R/B 3.6 21:45:55 25° NNE 21:45:55 25° NNE 21:48:33 10° N
Cosmos 1459 Rocket 4.2 21:45:22 26° SSW 21:49:00 67° W 21:55:12 10° N
Cosmos 158 Rocket 4.4 21:44:14 10° NNW 21:49:00 59° W 21:49:00 59° W
NOAA 11 4.5 21:51:35 60° N 21:51:35 60° N 21:56:04 10° N
Cosmos 2173 Rocket 4.2 21:48:08 32° SSW 21:51:04 65° W 21:57:17 10° N
Cosmos 2278 Rocket 4.3 21:47:32 10° WSW 21:52:09 25° NW 21:56:49 10° N
Cosmos 1833 Rocket 2.9 21:47:14 10° NNW 21:52:40 64° WSW 21:52:40 64° WSW
CZ-3 Stage 3 3.7 21:31:54 10° W 21:53:49 44° SSW 21:54:42 42° S
USA 267 3.4 22:14:41 68° N 22:14:41 68° N 22:20:36 10° NW
Lacrosse 5 rocket 4.2 22:14:33 10° NW 22:15:09 14° NW 22:15:09 14° NW
Cosmos 2082 Rocket 3.6 22:16:53 10° NW 22:21:38 32° W 22:21:38 32° W
Lacrosse 5 4.1 22:33:15 10° WNW 22:36:58 20° NNW 22:37:27 20° NNW
CZ-3B DEB 4.5 22:49:53 10° WNW 22:53:27 16° NNW 22:53:27 16° NNW
